IW1CGW-23 Weather Reports


Display with metric or nautical units.
time (UTC)temp
F
wind
direction
speed
MPH
gust
MPH
rain 1hr
in
rain 24hr
in
rain mn
in
humidity
%
barometer
mb
20260508002532 55 0.0 0.0 0.00 0.00 0.00 85 1014.4
20260508001231 55 0.0 0.0 0.00 0.00 0.00 85 1014.5
20260507225427 56 0.0 0.0 0.00 0.00 0.00 85 1015.1
20260507213622 57 0.0 0.0 0.00 0.00 0.00 83 1015.0
20260507212321 57 0.0 0.0 0.00 0.00 0.00 83 1014.9
20260507205719 58 0.0 0.0 0.00 0.00 0.00 83 1014.8
20260507203117 58 0.0 0.0 0.00 0.00 0.00 82 1014.7
20260507201816 58 0.0 0.0 0.00 0.00 0.00 81 1014.7
20260507195213 59 0.0 0.0 0.00 0.00 0.00 80 1014.7
20260507190007 62 0.0 0.0 0.00 0.00 0.00 77 1014.1
20260507184705 62 0.0 0.0 0.00 0.00 0.00 77 1014.1
20260507183403 62 0.0 0.0 0.00 0.00 0.00 77 1014.1
20260507180758 63 0.0 0.0 0.00 0.00 0.00 76 1013.9
20260507175456 63 0.0 0.0 0.00 0.00 0.00 76 1013.8
20260507172851 63 0.0 0.0 0.00 0.00 0.00 76 1013.7
20260507171549 63 0.0 0.0 0.00 0.00 0.00 77 1013.7
20260507170246 63 0.0 0.0 0.00 0.00 0.00 76 1014.0
20260507164944 63 0.0 0.0 0.00 0.00 0.00 76 1014.1
20260507163640 64 0.0 0.0 0.00 0.00 0.00 77 1014.0
20260507161038 64 0.0 0.0 0.00 0.00 0.00 76 1013.9
20260507154432 64 0.0 0.0 0.00 0.00 0.00 76 1013.7
20260507150522 65 0.0 0.0 0.00 0.00 0.00 76 1013.8
20260507145215 65 0.0 0.0 0.00 0.00 0.00 76 1013.8
20260507143912 65 0.0 0.0 0.00 0.00 0.00 75 1013.9
20260507142613 65 0.0 0.0 0.00 0.00 0.00 74 1013.9
20260507141305 65 0.0 0.0 0.00 0.00 0.00 74 1014.0
20260507132051 66 0.0 0.0 0.00 0.00 0.00 74 1014.5
20260507124141 65 0.0 0.0 0.00 0.00 0.00 76 1014.4
20260507120231 65 0.0 0.0 0.00 0.00 0.00 75 1014.1
20260507113622 66 0.0 0.0 0.00 0.00 0.00 74 1014.1
20260507105705 68 0.0 0.0 0.00 0.00 0.00 72 1014.4
20260507103054 69 0.0 0.0 0.00 0.00 0.00 71 1014.4
20260507101748 69 0.0 0.0 0.00 0.00 0.00 71 1014.3
20260507100442 69 0.0 0.0 0.00 0.00 0.00 70 1014.4
20260507095137 69 0.0 0.0 0.00 0.00 0.00 70 1014.4
20260507084607 70 0.0 0.0 0.00 0.00 0.00 68 1014.0
20260507081955 71 0.0 0.0 0.00 0.00 0.00 67 1013.7
20260507074042 69 0.0 0.0 0.00 0.00 0.00 68 1013.7
20260507071428 74 0.0 0.0 0.00 0.00 0.00 64 1013.5
20260507064816 68 0.0 0.0 0.00 0.00 0.00 69 1013.4
20260507063507 66 0.0 0.0 0.00 0.00 0.00 71 1013.2
20260507054250 61 0.0 0.0 0.00 0.00 0.00 79 1012.7
20260507052953 59 0.0 0.0 0.00 0.00 0.00 81 1012.6
20260507051651 58 0.0 0.0 0.00 0.00 0.00 83 1012.4
20260507050343 56 0.0 0.0 0.00 0.00 0.00 85 1012.1
20260507045042 55 0.0 0.0 0.00 0.00 0.00 86 1012.0
20260507041141 53 0.0 0.0 0.00 0.00 0.00 86 1011.9
20260507035841 53 0.0 0.0 0.00 0.00 0.00 85 1011.9
20260507031940 53 0.0 0.0 0.00 0.00 0.00 85 1011.7
20260507030640 54 0.0 0.0 0.00 0.00 0.00 85 1011.8
20260507024039 54 0.0 0.0 0.00 0.00 0.00 85 1011.6
20260507020138 54 0.0 0.0 0.00 0.00 0.00 85 1011.3
20260507012236 55 0.0 0.0 0.00 0.00 0.00 85 1011.1
20260507010941 55 0.0 0.0 0.00 0.00 0.00 85 1011.0
20260507005635 55 0.0 0.0 0.00 0.00 0.00 85 1011.1